Flag for Greece Weather past 2 weeks in Athens, Greece

Now
73 °F

Passing clouds.


Feels Like: 77 °F
Forecast: 67 / 77 °F
Wind: 6 mph from Northeast

Location: Elefsis Airport

Current Time: Sep 17, 2014 at 9:19:20 PM

Latest Report: Sep 17, 2014 at 8:50 PM


Visibility: N/A

Pressure: 29.92 "Hg

Humidity: 57%

Dew point: 57 °F

Location of AthensLocation

Historic Weather in Athens — Graph

°F

Athens temperature yesterday

Maximum temperature yesterday: 86 °F (at 3:20 PM)
Minimum temperature yesterday: 68 °F (at 4:50 AM)
Average temperature yesterday: 75 °F

Past Weeks' High & Low Weather Summary

 TemperatureHumidityPressure
High90 °F (Sep 5, 3:50 PM)100% (Sep 8, 12:50 AM)29.98 "Hg (Sep 8, 12:50 AM)
Low64 °F (Sep 11, 5:50 AM)27% (Sep 11, 4:20 PM)29.62 "Hg (Sep 2, 7:20 PM)
Average77 °F59%29.85 "Hg
* Reported Sep 2 7:20 PM — Sep 17 7:50 PM, Athens, Weather by CustomWeather, © 2014

Note: Actual official high and low records may vary slightly from our data, if they occured in-between our weather recording intervals... More about our weather records

Advertising

Athens weather history for previous 24 hours

 ConditionsComfort  
Time TempWeatherWind HumidityBarometerVisibility
7:50 PM
Sep 17
75 °FScattered clouds.6 mph50%29.92 "HgN/A
7:20 PM75 °FScattered clouds.5 mph50%29.89 "HgN/A
6:50 PM77 °FPassing clouds.9 mph47%29.89 "HgN/A
6:20 PM79 °FPassing clouds.10 mph45%29.89 "HgN/A
5:50 PM79 °FPassing clouds.10 mph45%29.89 "HgN/A
5:20 PM81 °FScattered clouds.9 mph42%29.86 "HgN/A
4:50 PM81 °FScattered clouds.9 mph42%29.86 "HgN/A
4:20 PM82 °FScattered clouds.12 mph37%29.89 "HgN/A
3:50 PM81 °FScattered clouds.12 mph39%29.89 "HgN/A
3:20 PM81 °FScattered clouds.12 mph42%29.89 "HgN/A
2:50 PM81 °FScattered clouds.12 mph42%29.89 "HgN/A
2:20 PM79 °FScattered clouds.12 mph48%29.89 "HgN/A
1:50 PM81 °FScattered clouds.8 mph42%29.89 "HgN/A
1:20 PM79 °FScattered clouds.12 mph51%29.89 "HgN/A
12:50 PM81 °FScattered clouds.8 mph45%29.89 "HgN/A
12:20 PM81 °FScattered clouds.8 mph45%29.89 "HgN/A
11:50 AM79 °FScattered clouds.8 mph48%29.89 "HgN/A
11:20 AM79 °FScattered clouds.7 mph48%29.89 "HgN/A
10:50 AM75 °FScattered clouds.7 mph61%29.89 "HgN/A
10:20 AM75 °FScattered clouds.No wind61%29.89 "HgN/A
9:50 AM73 °FPassing clouds.No wind65%29.89 "HgN/A
9:20 AM72 °FPassing clouds.No wind69%29.89 "HgN/A
8:50 AM72 °FPassing clouds.No wind69%29.89 "HgN/A
8:20 AM70 °FScattered clouds.No wind73%29.89 "HgN/A
7:50 AM68 °FPassing clouds.5 mph78%29.89 "HgN/A
7:20 AM68 °FPassing clouds.No wind78%29.89 "HgN/A
6:50 AM70 °FPassing clouds.6 mph73%29.86 "HgN/A
6:20 AM70 °FPassing clouds.No wind73%29.86 "HgN/A
5:50 AM70 °FPassing clouds.No wind73%29.86 "HgN/A
5:20 AM68 °FPassing clouds.No wind83%29.86 "HgN/A
4:50 AM68 °FPassing clouds.No wind78%29.86 "HgN/A
4:20 AM68 °FPassing clouds.No wind78%29.86 "HgN/A
3:50 AM68 °FPassing clouds.No wind78%29.86 "HgN/A
3:20 AM68 °FPassing clouds.No wind78%29.86 "HgN/A
2:50 AM66 °FPassing clouds.No wind83%29.86 "HgN/A
2:20 AM68 °FPassing clouds.No wind78%29.86 "HgN/A
1:50 AM68 °FPassing clouds.No wind78%29.86 "HgN/A
1:20 AM68 °FPassing clouds.No wind78%29.86 "HgN/A
12:50 AM68 °FPassing clouds.No wind78%29.86 "HgN/A
12:20 AM68 °FPassing clouds.No wind78%29.89 "HgN/A
11:50 PM
Sep 16
70 °FPassing clouds.No wind78%29.89 "HgN/A
11:20 PM70 °FPassing clouds.No wind78%29.89 "HgN/A
10:50 PM73 °FPassing clouds.No wind74%29.86 "HgN/A
10:20 PM72 °FPassing clouds.No wind83%29.86 "HgN/A
9:50 PM73 °FPassing clouds.No wind69%29.86 "HgN/A
9:20 PM73 °FPassing clouds.No wind69%29.86 "HgN/A
Weather by CustomWeather, © 2014

See weather overviewHow to use our weather pages